CAPE
0 0 0 0 0 0 0 0 0 0 0 0 0 0 0 0 0 0 0 0 0 0 0 0 0 0 0 0 0 0 0 0 0 0 0 0 3 2 1 0 0 0 0 0
0 0 0 0 0 0 0 0 0 0 0 0 0 0 0 0 0 0 0 0 0 0 0 0 0 0 0 0 0 0 0 0 0 0 0 0 0 1 2 1 0 0 0 0
0 0 0 0 0 0 0 0 0 0 0 0 0 0 0 0 0 0 0 0 0 0 0 0 0 0 0 0 0 0 0 0 0 1 0 0 1 1 0 2 0 1 1 1
0 0 0 0 0 0 0 0 0 0 0 0 0 0 0 0 0 0 0 0 0 0 0 0 0 0 0 0 0 0 0 0 0 0 3 5 1 1 1 1 0 0 2 1
0 0 0 0 0 0 0 0 0 0 0 0 0 0 0 0 0 0 0 0 0 0 0 0 0 0 0 0 0 0 0 0 0 0 5 4 2 1 3 5 4 1 0 1
0 0 0 0 0 0 0 0 0 0 0 0 0 0 0 0 0 0 0 0 0 0 0 0 0 0 0 0 0 0 0 1 0 0 2 2 0 0 4 4 3 2 0 1
0 0 0 0 0 0 0 0 0 0 0 0 0 0 0 0 0 0 0 0 0 0 0 0 0 0 0 2 0 0 1 0 0 0 0 2 0 2 2 2 1 0 2 2
0 0 0 0 0 0 0 0 0 0 0 0 0 0 0 0 0 0 0 0 0 0 0 0 1 4 10 0 0 0 0 6 3 0 0 0 1 0 1 1 4 1 1 0
0 0 0 0 0 0 0 0 0 0 0 0 0 0 0 0 0 0 0 0 0 0 0 0 0 0 0 0 0 0 0 3 0 0 2 0 1 3 3 3 1 2 1 1
0 0 0 0 0 0 0 0 0 0 0 0 0 0 0 0 0 0 0 0 0 0 0 0 0 0 0 0 0 2 2 3 1 0 2 1 2 2 0 2 0 3 2 3
0 0 0 0 0 0 0 0 0 0 0 0 0 0 0 0 0 0 0 0 0 0 0 0 0 0 0 3 0 1 3 1 2 1 0 0 2 0 0 1 1 0 4 2
0 0 0 0 0 0 0 0 0 0 0 0 0 0 0 0 0 0 0 0 0 0 0 0 0 1 7 5 2 0 2 1 1 2 4 4 3 2 2 2 1 3 2 0
0 0 0 0 0 0 0 0 0 0 0 0 0 0 0 0 0 0 0 0 0 0 0 0 0 0 2 5 3 2 6 1 0 0 2 1 0 1 0 0 1 0 0 0
0 0 0 0 0 0 0 0 0 0 0 0 0 0 0 0 0 0 0 0 0 0 0 0 0 0 1 3 2 0 0 1 0 1 2 0 0 0 0 0 0 0 0 0
0 0 0 0 0 0 0 0 0 0 0 0 0 0 0 0 0 0 0 0 0 0 0 0 0 0 3 1 2 0 0 1 1 0 1 2 0 0 0 0 0 0 0 0
0 0 0 0 0 0 0 0 0 0 0 0 0 0 0 0 0 0 0 0 0 0 0 0 0 2 6 1 1 0 2 2 1 0 1 3 0 0 0 1 0 0 0 0
0 0 0 0 0 0 0 0 0 0 0 0 0 0 0 0 0 0 0 0 0 0 0 1 2 2 6 1 0 1 1 2 1 2 2 0 0 0 0 0 0 0 0 0
0 0 0 0 0 0 0 0 0 0 0 0 0 0 0 0 0 0 0 0 0 0 0 1 3 5 7 0 2 2 1 2 1 1 4 2 0 0 0 0 0 0 0 0
0 0 0 0 0 0 0 0 0 0 0 0 0 0 0 0 0 0 0 0 0 0 0 0 0 9 0 1 1 0 0 2 4 1 2 1 0 0 0 0 0 0 0 0
0 0 0 0 0 0 0 0 0 0 0 0 0 0 0 0 0 0 0 0 0 0 0 0 4 1 0 0 0 0 1 3 2 1 0 0 0 0 0 0 0 0 0 0
0 0 0 0 0 0 0 0 0 0 0 0 0 0 0 0 0 0 0 0 0 0 0 0 0 6 4 0 0 0 0 1 0 0 1 4 1 2 0 0 0 0 0 0
0 0 0 0 0 0 0 0 0 0 0 0 0 0 0 0 0 0 0 0 0 0 0 0 0 1 0 4 3 0 0 0 0 0 0 0 1 0 0 0 0 0 0 0
0 0 0 0 0 0 0 0 0 0 0 0 0 0 0 0 0 0 0 0 0 0 0 0 0 0 0 0 5 0 0 0 0 0 0 0 0 0 0 2 1 0 0 0
0 0 0 0 0 0 0 0 0 0 0 0 0 0 0 0 0 0 0 0 0 0 0 0 0 0 0 0 0 0 0 0 0 0 0 0 0 0 0 0 0 1 0 0
0 0 0 0 0 0 0 0 0 0 0 0 0 0 0 0 0 0 0 0 0 0 0 0 0 0 0 0 0 0 0 0 0 0 0 0 0 0 0 0 0 0 0 0
0 0 0 0 0 0 0 0 0 0 0 0 0 0 0 0 0 0 0 0 0 0 0 0 0 0 0 0 0 0 0 0 0 0 0 0 0 0 0 0 0 0 0 0
0 0 0 0 0 0 0 0 0 0 0 0 0 0 0 0 0 0 0 0 0 0 0 0 0 0 0 0 0 0 0 0 0 0 0 0 0 0 0 0 0 0 0 0
CIN
0 0 0 0 0 0 0 0 0 0 0 0 0 0 0 0 0 0 0 0 0 0 0 0 0 0 0 0 0 0 0 0 0 0 0 0 -2 0 0 0 0 0 0 0
0 0 0 0 0 0 0 0 0 0 0 0 0 0 0 0 0 0 0 0 0 0 0 0 0 0 0 0 0 0 0 0 0 0 0 -1 0 0 0 0 0 0 0 -8
0 0 0 0 0 0 0 0 0 0 0 0 0 0 0 0 0 0 0 0 0 0 0 0 0 0 0 0 0 0 0 0 0 -1 0 0 0 0 0 0 0 0 0 0
0 0 0 0 0 0 0 0 0 0 0 0 0 0 0 0 0 0 0 0 0 0 0 0 0 0 0 0 0 0 0 0 0 0 0 0 0 0 0 0 0 0 0 0
0 0 0 0 0 0 0 0 0 0 0 0 0 0 0 0 0 0 0 0 0 0 0 0 0 0 0 0 0 0 0 0 0 0 0 0 0 0 0 0 0 -1 0 0
0 0 0 0 0 0 0 0 0 0 0 0 0 0 0 0 0 0 0 0 0 0 0 0 0 0 0 0 0 0 0 0 0 -3 0 0 0 0 0 0 0 0 0 0
0 0 0 0 0 0 0 0 0 0 0 0 0 0 0 0 0 0 0 0 0 0 0 0 0 0 0 -1 0 0 0 0 0 0 0 0 0 0 0 0 0 0 -1 -1
0 0 0 0 0 0 0 0 0 0 0 0 0 0 0 0 0 0 0 0 0 0 0 -1 0 -1 -1 -1 0 0 0 0 0 0 0 0 0 0 0 0 0 0 -1 0
0 0 0 0 0 0 0 0 0 0 0 0 0 0 0 0 0 0 0 0 0 0 0 0 0 0 0 0 0 0 0 -1 -1 0 0 0 0 0 0 0 0 0 -1 0
0 0 0 0 0 0 0 0 0 0 0 0 0 0 0 0 0 0 0 0 0 0 0 0 0 0 0 0 0 -1 -1 0 0 0 0 0 0 0 0 -1 0 0 -1 0
0 0 0 0 0 0 0 0 0 0 0 0 0 0 0 0 0 0 0 0 0 0 0 0 0 0 0 -1 0 0 0 0 0 0 0 0 0 0 0 0 0 0 0 0
0 0 0 0 0 0 0 0 0 0 0 0 0 0 0 0 0 0 0 0 0 0 0 0 0 -2 -1 -1 -2 -2 0 0 0 0 0 0 0 0 0 -1 -1 0 0 0
0 0 0 0 0 0 0 0 0 0 0 0 0 0 0 0 0 0 0 0 0 0 0 0 0 0 -2 0 0 0 -1 -1 0 0 0 0 0 0 -1 -1 -1 -1 0 0
0 0 0 0 0 0 0 0 0 0 0 0 0 0 0 0 0 0 0 0 0 0 0 0 0 0 0 -1 0 0 0 0 0 0 0 0 0 0 0 0 -1 0 0 0
0 0 0 0 0 0 0 0 0 0 0 0 0 0 0 0 0 0 0 0 0 0 0 0 0 0 -1 0 0 0 0 0 0 0 0 0 0 0 0 0 0 0 0 0
0 0 0 0 0 0 0 0 0 0 0 0 0 0 0 0 0 0 0 0 0 0 0 0 0 0 0 0 0 0 0 0 0 0 0 0 0 0 0 0 0 0 0 0
0 0 0 0 0 0 0 0 0 0 0 0 0 0 0 0 0 0 0 0 0 0 0 0 0 0 -1 0 0 0 0 0 0 0 0 0 0 0 0 0 0 0 0 0
0 0 0 0 0 0 0 0 0 0 0 0 0 0 0 0 0 0 0 0 0 0 0 0 0 0 0 0 0 0 0 0 0 0 0 0 0 0 0 0 0 0 0 0
0 0 0 0 0 0 0 0 0 0 0 0 0 0 0 0 0 0 0 0 0 0 -1 0 -1 0 0 0 0 0 0 0 0 0 0 0 0 0 0 0 0 0 0 0
0 0 0 0 0 0 0 0 0 0 0 0 0 0 0 0 0 0 0 0 0 0 0 0 -1 0 0 0 0 0 0 0 0 0 0 0 0 0 0 0 0 0 0 0
0 0 0 0 0 0 0 0 0 0 0 0 0 0 0 0 0 0 0 0 0 0 0 0 0 0 0 0 0 0 0 0 0 0 0 0 0 0 0 0 0 0 0 0
0 0 0 0 0 0 0 0 0 0 0 0 0 0 0 0 0 0 0 0 0 0 0 0 0 0 0 0 0 0 0 0 0 0 0 0 0 0 0 0 0 0 0 0
0 0 0 0 0 0 0 0 0 0 0 0 0 0 0 0 0 0 0 0 0 0 0 0 -1 0 0 0 -1 0 0 0 0 0 0 0 0 0 0 0 0 0 0 0
0 0 0 0 0 0 0 0 0 0 0 0 0 0 0 0 0 0 0 0 0 0 0 0 0 0 0 0 0 0 0 0 0 0 0 0 0 0 0 0 0 0 0 0
0 0 0 0 0 0 0 0 0 0 0 0 0 0 0 0 0 0 0 0 0 0 0 0 0 0 0 0 0 0 0 0 0 0 0 0 0 0 0 0 0 0 0 0
0 0 0 0 0 0 0 0 0 0 0 0 0 0 0 0 0 0 0 0 0 0 0 0 0 0 0 0 0 0 0 0 0 0 0 0 0 0 0 0 0 0 0 0
0 0 0 0 0 0 0 0 0 0 0 0 0 0 0 0 0 0 0 0 0 0 0 0 0 0 0 0 0 0 0 0 0 0 0 0 0 0 0 0 0 0 0 0
Wind_Speed
23 22 20 19 20 19 16 16 10 13 14 9 10 9 11 11 12 14 14 15 15 16 17 19 19 21 22 26 22 24 25 25 28 26 23 19 5 7 9 8 11 15 17 23
24 22 20 19 20 19 16 11 8 11 14 8 8 10 10 12 12 14 14 14 16 16 17 18 19 19 20 24 25 24 24 23 23 22 21 8 7 6 10 14 16 11 12 22
24 22 20 20 20 19 16 11 6 8 9 7 14 13 11 12 13 14 15 14 15 16 19 20 18 17 19 22 24 22 20 23 24 24 22 8 7 7 9 16 9 20 23 23
24 23 21 20 20 20 16 11 6 9 7 7 8 11 11 12 13 14 15 15 17 17 17 18 18 17 16 21 23 22 20 20 20 21 22 8 10 10 10 13 17 22 24 25
25 23 23 22 21 16 13 7 4 5 8 8 10 11 12 13 15 15 14 15 18 17 18 19 17 17 18 21 23 21 20 16 15 17 20 12 12 14 15 14 13 22 25 27
25 24 24 23 21 18 12 9 7 5 6 7 9 11 13 14 15 15 15 16 18 20 20 18 19 20 21 21 23 22 19 14 11 10 10 14 8 4 12 20 14 6 15 17
25 24 25 25 18 17 12 6 5 5 6 8 10 13 14 15 15 14 15 17 18 18 20 20 18 19 21 23 24 23 18 11 8 6 7 6 7 9 10 21 3 3 14 16
25 24 25 22 16 17 8 7 7 5 8 12 13 15 17 18 17 17 19 20 19 16 17 18 19 19 19 24 25 24 18 9 5 3 10 9 8 10 10 11 4 5 4 10
24 24 24 17 12 5 4 5 6 8 11 6 8 14 15 15 16 18 20 20 19 17 19 20 23 26 25 25 22 22 16 12 9 17 19 18 13 14 16 17 14 8 4 8
22 21 17 11 8 8 5 4 7 8 13 7 9 12 12 14 16 18 19 20 20 18 22 25 27 27 23 27 25 22 13 10 13 17 18 13 13 14 17 18 15 9 6 8
18 17 13 11 9 5 2 1 8 7 9 9 10 11 13 14 17 18 18 19 21 21 24 25 24 28 26 24 24 21 8 17 19 19 18 16 11 14 14 15 13 10 8 8
19 15 12 10 8 5 5 5 5 11 13 17 17 18 15 9 19 22 22 23 23 23 23 24 25 28 27 26 27 10 14 14 20 15 15 14 13 17 15 14 13 11 10 9
16 13 11 10 8 7 14 22 24 22 24 18 12 10 13 16 19 21 23 24 25 28 27 28 28 31 27 30 17 14 14 12 17 16 12 12 14 15 15 13 14 14 13 12
15 14 13 16 18 16 14 9 2 8 12 8 11 13 13 15 22 26 27 29 29 29 30 31 31 31 20 19 16 16 14 11 13 17 13 12 14 14 15 15 16 16 15 14
16 17 18 17 19 18 14 8 2 5 9 9 13 15 13 16 20 25 27 28 28 28 29 30 30 23 15 15 16 12 8 11 14 15 12 13 15 15 16 17 17 17 16 15
18 19 20 18 12 7 4 3 7 5 16 10 9 7 8 13 20 24 25 26 28 28 29 29 25 17 13 13 12 7 6 10 17 15 13 14 16 17 16 17 17 17 17 16
20 17 13 8 4 3 8 4 2 2 5 10 10 9 9 9 16 24 26 26 27 27 27 27 25 19 12 8 4 5 6 8 12 12 11 10 10 13 15 15 15 15 15 16
19 18 16 13 13 9 4 2 4 5 9 9 9 6 7 10 14 22 24 25 25 27 25 25 24 19 11 8 6 8 8 8 10 9 10 10 10 13 13 13 12 9 9 10
16 13 9 5 5 6 4 9 5 7 9 9 8 7 7 7 10 19 22 23 25 23 26 24 22 22 17 10 9 9 9 9 12 12 13 10 12 13 13 11 10 10 10 11
14 12 11 9 9 9 10 9 9 11 11 11 7 7 6 10 11 16 18 19 20 20 21 20 24 24 19 11 14 12 12 12 15 16 16 15 13 13 14 13 12 12 11 11
15 13 11 9 10 10 10 9 10 11 10 9 7 7 9 7 10 14 15 18 18 18 19 19 19 20 23 19 13 14 13 12 14 16 17 16 14 14 14 14 13 13 13 13
13 6 7 9 11 10 10 10 10 10 9 6 6 7 6 7 10 13 14 16 16 17 17 18 19 19 20 21 20 14 14 14 16 18 18 18 18 16 15 16 15 15 15 15
10 10 12 13 13 12 12 9 9 8 4 1 8 5 6 8 11 12 13 15 15 16 16 17 17 18 19 20 23 22 17 16 17 18 19 20 20 19 18 17 18 16 16 16
14 13 11 13 14 13 12 10 6 6 6 11 7 4 9 10 11 12 13 14 13 14 14 14 14 15 17 19 19 19 21 19 19 19 19 19 20 20 20 19 18 18 17 17
13 13 14 14 11 10 7 5 1 5 9 5 3 7 9 10 11 12 12 11 12 12 12 11 13 15 16 17 18 19 20 21 20 20 20 19 20 20 20 21 21 20 19 19
13 13 11 10 7 7 5 1 5 3 2 3 8 9 11 12 11 11 11 10 12 11 10 13 13 13 14 15 16 18 20 21 22 21 20 21 19 19 20 21 22 22 22 20
14 13 9 10 5 4 2 4 2 3 4 9 10 11 13 10 12 12 12 13 11 9 11 12 12 12 12 14 16 17 19 20 20 21 21 20 20 20 20 21 22 22 22 22
Wind_Direction
229 230 233 231 225 228 239 237 290 285 251 322 330 13 38 25 11 352 355 10 6 357 1 6 13 16 16 15 22 22 25 29 30 39 60 91 204 207 185 208 187 168 150 64
226 227 229 227 224 226 233 262 309 279 249 5 36 42 20 1 354 339 359 6 353 7 13 12 16 20 25 17 21 22 27 30 36 49 67 109 196 207 181 170 169 183 161 69
223 224 225 224 223 224 233 260 339 303 321 354 75 64 17 18 350 1 8 10 14 21 13 14 21 27 26 22 19 27 36 32 38 44 58 176 237 266 210 163 184 51 44 38
221 222 222 221 221 220 230 260 305 262 48 20 29 4 16 22 6 4 346 359 8 19 17 21 23 28 30 21 17 21 28 29 45 58 68 300 326 339 341 8 58 60 59 42
220 221 219 218 218 225 244 272 302 5 44 24 29 336 345 25 23 336 340 16 15 23 21 19 22 27 20 11 8 11 16 22 42 55 76 16 14 7 9 13 13 44 64 61
220 220 218 216 218 224 250 257 235 14 307 336 350 337 15 24 21 347 10 29 28 23 21 26 27 25 17 11 2 1 4 12 29 52 70 244 287 280 4 33 10 329 26 105
219 219 217 216 220 231 246 239 272 17 334 347 0 35 30 22 349 28 24 28 29 32 37 38 35 23 15 9 3 0 356 10 25 23 24 10 291 321 198 38 327 273 133 106
219 219 216 216 218 229 228 247 276 9 35 52 42 41 45 37 27 26 31 23 29 43 44 29 19 11 6 3 1 1 2 4 25 13 271 230 264 280 248 206 262 304 177 119
219 216 213 211 215 199 227 274 267 58 63 354 359 41 22 17 19 25 28 33 43 49 33 24 13 4 0 359 359 2 359 333 282 232 219 222 250 247 216 203 180 297 215 131
215 211 203 184 191 202 246 264 233 37 62 334 312 9 351 355 16 28 46 49 48 47 34 26 18 14 14 6 7 7 351 270 231 218 213 225 249 236 218 201 196 253 213 148
203 196 184 181 150 179 194 269 239 37 47 17 0 350 9 8 26 51 63 56 46 45 37 32 33 28 32 37 43 50 255 207 200 200 203 209 260 223 215 212 225 235 216 178
193 183 167 163 137 135 116 73 43 62 47 68 42 29 3 314 30 64 63 60 53 46 47 48 47 50 58 63 76 163 175 193 189 202 203 224 233 204 214 221 233 237 226 203
182 169 154 148 145 176 102 96 91 74 75 48 17 332 341 355 45 88 74 68 62 58 58 61 67 67 77 86 121 150 167 180 184 194 201 212 209 213 218 249 248 246 235 216
165 149 133 116 110 107 105 97 271 40 47 28 13 359 5 356 27 48 54 69 66 68 64 68 76 80 119 126 136 136 156 176 182 178 193 211 210 224 246 252 257 253 247 226
148 131 124 118 112 104 88 62 342 312 6 55 57 30 2 12 25 41 54 62 66 68 66 75 86 114 138 137 143 143 170 173 176 185 206 208 214 240 261 257 254 251 241 232
140 132 124 123 129 176 218 323 343 28 73 45 18 337 344 8 25 36 43 58 62 70 74 81 102 134 160 145 150 163 203 201 179 191 206 215 227 252 257 258 254 246 234 221
142 145 153 172 184 244 257 325 108 270 0 35 29 4 292 301 18 55 57 53 65 70 76 78 94 127 163 171 182 266 242 223 195 192 206 197 259 266 273 263 260 249 234 219
133 122 113 103 88 81 73 221 248 272 17 349 353 335 331 302 26 68 71 72 68 63 75 82 87 117 180 201 278 283 278 252 207 255 211 195 242 282 292 286 288 288 293 272
139 136 150 185 238 236 222 228 260 330 331 341 331 38 16 6 18 58 73 73 72 71 66 74 85 89 120 252 259 287 287 266 266 274 293 275 290 301 311 305 302 304 299 292
178 202 220 232 231 217 237 269 295 307 319 321 338 338 25 65 44 52 74 58 73 81 75 77 72 80 96 286 302 299 301 304 319 328 319 306 300 302 309 309 301 299 296 301
211 223 233 197 233 253 280 292 298 302 316 316 329 38 69 303 26 47 19 66 71 76 71 79 82 83 61 90 339 322 317 315 329 331 335 328 305 301 306 308 304 307 306 307
223 185 195 233 257 276 290 284 292 302 308 325 64 55 14 345 334 14 16 42 59 60 58 70 76 63 69 71 83 343 332 332 339 345 344 341 339 325 317 318 312 307 308 312
201 222 240 250 271 273 270 270 283 302 304 3 94 52 339 345 339 358 8 25 36 58 57 64 65 62 66 67 62 69 356 340 340 340 343 347 348 341 333 327 328 322 318 315
230 240 246 262 265 273 278 271 276 292 94 108 88 352 323 337 343 354 4 17 41 37 43 58 72 61 62 69 70 64 38 354 342 342 336 339 343 345 346 341 334 334 330 322
241 254 255 263 270 272 278 287 348 99 109 96 40 333 330 335 342 340 4 20 20 29 28 61 78 71 63 56 51 34 27 4 336 334 336 335 340 344 346 349 349 342 336 332
254 266 259 253 262 264 265 150 112 126 128 324 315 318 320 324 343 342 350 8 7 14 47 83 81 65 56 52 41 29 18 3 353 340 333 332 330 332 338 349 349 350 348 339
256 257 263 262 256 253 188 131 173 259 280 289 307 310 313 336 330 333 342 344 8 47 77 82 75 67 52 42 32 22 20 19 2 339 338 334 330 334 338 328 327 331 340 347